| time (UTC) | temp F | wind direction | speed knots | gust knots | rain 1hr in | rain 24hr in | rain mn in | humidity % | barometer mb |
| 20260506182916 | 62 | 248 | 6.1 | 9.6 | 0.00 | 1.69 | 0.01 | 72 | 1010.8 |
| 20260506175931 | 63 | 266 | 5.2 | 8.7 | 0.00 | 1.69 | 0.01 | 70 | 1010.6 |
| 20260506172920 | 63 | 216 | 5.2 | 8.7 | 0.00 | 1.69 | 0.01 | 71 | 1010.2 |
| 20260506165934 | 63 | 263 | 5.2 | 10.4 | 0.00 | 1.69 | 0.01 | 69 | 1010.2 |
| 20260506162921 | 64 | 253 | 7.0 | 13.0 | 0.00 | 1.69 | 0.01 | 70 | 1010.2 |
| 20260506155914 | 64 | 216 | 7.0 | 10.4 | 0.00 | 1.69 | 0.01 | 68 | 1010.4 |
| 20260506152950 | 64 | 232 | 5.2 | 11.3 | 0.00 | 1.69 | 0.01 | 69 | 1010.3 |
| 20260506145942 | 64 | 254 | 6.1 | 11.3 | 0.00 | 1.69 | 0.01 | 67 | 1010.3 |
| 20260506142928 | 65 | 227 | 7.8 | 13.9 | 0.00 | 1.69 | 0.01 | 67 | 1010.6 |
| 20260506135928 | 65 | 244 | 7.8 | 12.2 | 0.00 | 1.69 | 0.01 | 67 | 1010.6 |
| 20260506132914 | 65 | 231 | 7.0 | 12.2 | 0.00 | 1.69 | 0.01 | 68 | 1010.9 |
| 20260506125929 | 65 | 241 | 7.0 | 11.3 | 0.00 | 1.69 | 0.01 | 69 | 1010.9 |
| 20260506122923 | 64 | 244 | 7.8 | 13.9 | 0.00 | 1.69 | 0.01 | 70 | 1010.9 |
| 20260506115928 | 64 | 268 | 8.7 | 18.2 | 0.00 | 1.69 | 0.01 | 70 | 1010.8 |
| 20260506112923 | 64 | 227 | 6.1 | 14.8 | 0.00 | 1.69 | 0.01 | 70 | 1010.8 |
| 20260506105912 | 63 | 231 | 7.8 | 13.9 | 0.00 | 1.69 | 0.01 | 69 | 1010.9 |
| 20260506102922 | 63 | 191 | 8.7 | 14.8 | 0.00 | 1.69 | 0.01 | 72 | 1011.0 |
| 20260506095938 | 63 | 243 | 6.1 | 13.9 | 0.00 | 1.69 | 0.01 | 75 | 1010.9 |
| 20260506092936 | 63 | 233 | 7.0 | 11.3 | 0.00 | 1.69 | 0.01 | 74 | 1010.9 |
| 20260506085924 | 62 | 252 | 5.2 | 9.6 | 0.00 | 1.69 | 0.01 | 80 | 1010.4 |
| 20260506082919 | 60 | 251 | 5.2 | 11.3 | 0.00 | 1.69 | 0.01 | 85 | 1010.3 |
| 20260506072920 | 58 | 236 | 5.2 | 9.6 | 0.00 | 1.69 | 0.01 | 91 | 1010.0 |
| 20260506042930 | 54 | 13 | 0.0 | 0.0 | 0.00 | 1.65 | 0.00 | 91 | 1008.4 |
| 20260506035923 | 54 | 13 | 0.0 | 0.0 | 0.00 | 1.65 | 0.00 | 91 | 1008.5 |
| 20260506032932 | 53 | 14 | 0.0 | 0.0 | 0.00 | 1.65 | 0.00 | 91 | 1008.5 |
| 20260506025925 | 54 | 12 | 0.0 | 0.9 | 0.00 | 1.65 | 0.00 | 90 | 1008.4 |
| 20260506022919 | 54 | 153 | 0.0 | 0.0 | 0.00 | 1.73 | 0.33 | 90 | 1008.0 |
| 20260506015928 | 55 | 153 | 0.0 | 0.0 | 0.00 | 1.73 | 0.33 | 90 | 1007.6 |
| 20260506012943 | 55 | 80 | 1.7 | 6.1 | 0.08 | 2.17 | 0.33 | 90 | 1007.2 |
| 20260506005914 | 56 | 29 | 0.9 | 4.3 | 1.50 | 2.17 | 0.33 | 89 | 1007.8 |
| 20260506002912 | 59 | 298 | 5.2 | 11.3 | 1.54 | 2.09 | 0.31 | 88 | 1008.2 |
| 20260505235921 | 59 | 26 | 0.0 | 2.6 | 0.16 | 0.67 | 0.03 | 88 | 1008.5 |
| 20260505232912 | 60 | 95 | 1.7 | 4.3 | 0.04 | 0.94 | 0.01 | 87 | 1008.3 |
| 20260505225923 | 60 | 78 | 1.7 | 5.2 | 0.00 | 0.91 | 0.00 | 86 | 1009.0 |
| 20260505222912 | 60 | 76 | 1.7 | 5.2 | 0.00 | 1.57 | 0.00 | 86 | 1008.9 |
| 20260505215911 | 61 | 125 | 1.7 | 6.1 | 0.00 | 1.57 | 0.00 | 85 | 1009.3 |
| 20260505212921 | 61 | 73 | 2.6 | 7.8 | 0.00 | 1.57 | 0.00 | 84 | 1009.8 |
| 20260505205920 | 62 | 146 | 1.7 | 7.0 | 0.00 | 1.57 | 0.00 | 84 | 1010.3 |
| 20260505202928 | 62 | 134 | 0.0 | 3.5 | 0.00 | 1.57 | 0.00 | 83 | 1010.4 |
| 20260505195936 | 62 | 95 | 0.0 | 0.0 | 0.00 | 1.57 | 0.00 | 81 | 1010.0 |
| 20260505192914 | 63 | 40 | 0.0 | 2.6 | 0.00 | 1.57 | 0.00 | 80 | 1009.9 |
| 20260505185927 | 62 | 211 | 0.0 | 0.0 | 0.00 | 1.57 | 0.00 | 78 | 1010.0 |